Paris / Charles De Gaulle, France

9:43 PM CET on January 19, 2018 (GMT +0100)
Charles de Gaulle

Weather History for LFPG - December, 2012

Change the Weather History Date:

Sunday, December 23, 2012

  Actual Average Record
Temperature  
Mean Temperature 55 °F -  
Max Temperature 57 °F 42 °F 57 °F (2012)
Min Temperature 53 °F 34 °F 24 °F (2001)
Degree Days  
Heating Degree Days 10    
Growing Degree Days 5 (Base 50)    
Moisture  
Dew Point 50 °F    
Average Humidity 78    
Maximum Humidity 88    
Minimum Humidity 72    
Precipitation  
Precipitation 0.00 in - - ()
Sea Level Pressure  
Sea Level Pressure 29.85 in    
Wind  
Wind Speed 17 mph ()    
Max Wind Speed 24 mph    
Max Gust Speed 31 mph    
Visibility 6.2 miles    
Events      
Averages and records for this station are not official NWS values.
T = Trace of Precipitation, MM = Missing Value Source: Averaged Metar Reports

Daily Weather History Graph

Daily Weather History Graph

Search for Another Location

Airport or City:

Trip Planner

Search our weather history database for the weather conditions in past years. The results will help you decide how hot, cold, wet, or windy it might be!

Date:

Astronomy

Dec. 23, 2012 Rise Set
Actual Time 8:42 AM CET 4:55 PM CET
Civil Twilight 8:04 AM CET 5:33 PM CET
Nautical Twilight 7:24 AM CET 6:14 PM CET
Astronomical Twilight 6:45 AM CET 6:52 PM CET
Moon 1:49 PM CET (12/23) 3:57 AM CET (12/23)
Length of Visible Light 9h 28m
Length of Day
8h 13m
Waxing Gibbous, 79% of the Moon is Illuminated
Dec 23
Waxing Gibbous
Dec 28
Full
Jan 5
Last Quarter
Jan 11
New
Jan 19
First Quarter

Hourly Weather History & Observations

Time (CET) Temp. Dew Point Humidity Pressure Visibility Wind Dir Wind Speed Gust Speed Precip Events Conditions
12:00 AM 55.4 °F 51.8 °F 88% 29.83 in 6.2 mi WSW 18.4 mph - N/A   Mostly Cloudy
12:30 AM 55.4 °F 51.8 °F 88% 29.83 in 6.2 mi SW 19.6 mph - N/A   Mostly Cloudy
1:00 AM 55.4 °F 50.0 °F 82% 29.83 in 6.2 mi SW 20.7 mph - N/A   Mostly Cloudy
1:30 AM 55.4 °F 50.0 °F 82% 29.83 in 6.2 mi SW 20.7 mph - N/A   Mostly Cloudy
2:00 AM 55.4 °F 50.0 °F 82% 29.83 in 6.2 mi SW 20.7 mph - N/A   Mostly Cloudy
2:30 AM 55.4 °F 50.0 °F 82% 29.83 in 6.2 mi SW 18.4 mph - N/A   Mostly Cloudy
3:00 AM 57.2 °F 50.0 °F 77% 29.83 in 6.2 mi WSW 19.6 mph - N/A   Mostly Cloudy
3:30 AM 57.2 °F 50.0 °F 77% 29.83 in 6.2 mi SW 20.7 mph - N/A   Mostly Cloudy
4:00 AM 57.2 °F 50.0 °F 77% 29.83 in 6.2 mi SW 20.7 mph - N/A   Mostly Cloudy
4:30 AM 57.2 °F 50.0 °F 77% 29.83 in 6.2 mi SW 21.9 mph - N/A   Mostly Cloudy
5:00 AM 57.2 °F 50.0 °F 77% 29.83 in 6.2 mi SW 19.6 mph - N/A   Mostly Cloudy
5:30 AM 57.2 °F 50.0 °F 77% 29.86 in 6.2 mi SW 24.2 mph - N/A   Mostly Cloudy
6:00 AM 57.2 °F 50.0 °F 77% 29.86 in 6.2 mi SW 21.9 mph - N/A   Mostly Cloudy
6:30 AM 57.2 °F 48.2 °F 72% 29.86 in 6.2 mi SW 18.4 mph - N/A   Mostly Cloudy
7:00 AM 57.2 °F 48.2 °F 72% 29.86 in 6.2 mi SW 19.6 mph - N/A   Mostly Cloudy
7:30 AM 57.2 °F 48.2 °F 72% 29.86 in 6.2 mi WSW 19.6 mph - N/A   Mostly Cloudy
8:00 AM 57.2 °F 48.2 °F 72% 29.83 in 6.2 mi SW 18.4 mph - N/A   Mostly Cloudy
8:30 AM 57.2 °F 48.2 °F 72% 29.83 in 6.2 mi SW 19.6 mph - N/A   Mostly Cloudy
9:00 AM 57.2 °F 48.2 °F 72% 29.86 in 6.2 mi SW 13.8 mph - N/A   Mostly Cloudy
9:30 AM 57.2 °F 48.2 °F 72% 29.86 in 6.2 mi SW 20.7 mph - N/A   Mostly Cloudy
10:00 AM 57.2 °F 48.2 °F 72% 29.86 in 6.2 mi SW 21.9 mph - N/A   Mostly Cloudy
10:30 AM 57.2 °F 48.2 °F 72% 29.86 in 6.2 mi SW 18.4 mph - N/A   Mostly Cloudy
11:00 AM 55.4 °F 50.0 °F 82% 29.86 in 6.2 mi SW 19.6 mph - N/A   Mostly Cloudy
11:30 AM 55.4 °F 50.0 °F 82% 29.86 in 6.2 mi SW 18.4 mph - N/A   Mostly Cloudy
12:00 PM 55.4 °F 50.0 °F 82% 29.86 in 6.2 mi SW 18.4 mph 31.1 mph N/A   Mostly Cloudy
12:30 PM 55.4 °F 50.0 °F 82% 29.86 in 6.2 mi SW 19.6 mph - N/A   Mostly Cloudy
1:00 PM 55.4 °F 50.0 °F 82% 29.86 in 6.2 mi SW 18.4 mph - N/A   Mostly Cloudy
1:30 PM 57.2 °F 50.0 °F 77% 29.86 in 6.2 mi SW 18.4 mph - N/A   Mostly Cloudy
2:00 PM 57.2 °F 50.0 °F 77% 29.86 in 6.2 mi SW 18.4 mph - N/A   Mostly Cloudy
2:30 PM 57.2 °F 50.0 °F 77% 29.86 in 6.2 mi SW 18.4 mph - N/A   Mostly Cloudy
3:00 PM 57.2 °F 50.0 °F 77% 29.86 in 6.2 mi SW 18.4 mph - N/A   Mostly Cloudy
3:30 PM 57.2 °F 50.0 °F 77% 29.86 in 6.2 mi SW 17.3 mph - N/A   Mostly Cloudy
4:00 PM 57.2 °F 50.0 °F 77% 29.86 in 6.2 mi SW 17.3 mph - N/A   Mostly Cloudy
4:30 PM 57.2 °F 50.0 °F 77% 29.86 in 6.2 mi SW 15.0 mph - N/A   Mostly Cloudy
5:00 PM 57.2 °F 50.0 °F 77% 29.86 in 6.2 mi SW 15.0 mph - N/A   Mostly Cloudy
5:30 PM 57.2 °F 50.0 °F 77% 29.86 in 6.2 mi SSW 13.8 mph - N/A   Mostly Cloudy
6:00 PM 57.2 °F 50.0 °F 77% 29.86 in 6.2 mi SSW 16.1 mph - N/A   Mostly Cloudy
6:30 PM 57.2 °F 50.0 °F 77% 29.86 in 6.2 mi SW 13.8 mph - N/A   Mostly Cloudy
7:00 PM 57.2 °F 50.0 °F 77% 29.86 in 6.2 mi SSW 13.8 mph - N/A   Mostly Cloudy
7:30 PM 55.4 °F 50.0 °F 82% 29.86 in 6.2 mi SSW 12.7 mph - N/A   Overcast
8:00 PM 55.4 °F 50.0 °F 82% 29.86 in 6.2 mi SSW 18.4 mph - N/A   Overcast
8:30 PM 55.4 °F 50.0 °F 82% 29.86 in 6.2 mi SSW 15.0 mph - N/A   Overcast
9:00 PM 55.4 °F 50.0 °F 82% 29.86 in 6.2 mi SSW 17.3 mph - N/A   Overcast
9:30 PM 55.4 °F 48.2 °F 77% 29.86 in 6.2 mi SSW 17.3 mph 29.9 mph N/A   Overcast
10:00 PM 55.4 °F 48.2 °F 77% 29.89 in 6.2 mi SSW 18.4 mph - N/A   Overcast
10:30 PM 53.6 °F 48.2 °F 82% 29.89 in 6.2 mi SSW 17.3 mph - N/A   Overcast
11:00 PM 55.4 °F 48.2 °F 77% 29.89 in 6.2 mi SSW 20.7 mph - N/A   Scattered Clouds
11:30 PM 55.4 °F 48.2 °F 77% 29.89 in 6.2 mi SSW 17.3 mph - N/A   Mostly Cloudy